Regional Weather Roundup
Issued by NWS Mt. Holly, NJ

Home | Current Version | Previous Version | Text Only | Print | Product List | Glossary On
Versions: 1 2 3 4 5 6 7 8 9 10 11 12 13 14 15 16 17 18 19 20 21 22 23 24 25 26 27 28 29 30 31 32 33 34 35 36 37 38 39 40 41 42 43 44 45 46 47 48 49 50
519
ASUS41 KPHI 050512
RWRPHI

REGIONAL WEATHER ROUNDUP
NATIONAL WEATHER SERVICE MOUNT HOLLY NJ
100 AM EDT THU MAY 05 2016

NOTE:  "FAIR" INDICATES FEW OR NO CLOUDS BELOW 12,000 FEET WITH NO
SIGNIFICANT WEATHER AND/OR OBSTRUCTIONS TO VISIBILITY.

 * = STATION DOES NOT REPORT PRECIPITATION (E.G. RAIN, SNOW, ETC.)
        OR FOG.

NJZ015>026-050600-
SOUTHERN NEW JERSEY

CITY           SKY/WX    TMP DP  RH WIND       PRES   REMARKS
POMONA         CLOUDY    48  46  93 NE13G23   29.71S
WILDWOOD*      CLOUDY   N/A N/A N/A NE10G16   29.70S
MILLVILLE      CLOUDY    49  46  90 NE8       29.71S
WRIGHTSTOWN    CLOUDY    48  47  96 NE7       29.70S
MOUNT HOLLY    CLOUDY    49  46  90 NE5       29.72F
TRENTON        CLOUDY    49  45  86 NE7       29.72F

$$
NJZ001>014-050600-
NORTHERN NEW JERSEY

CITY           SKY/WX    TMP DP  RH WIND       PRES   REMARKS
SUSSEX         CLOUDY    47  42  83 NE8       29.75S
ANDOVER*         N/A     47  43  86 NE7       29.74S
MORRISTOWN     CLOUDY    48  41  76 NE6       29.75R
NEWARK         CLOUDY    49  43  80 NE13      29.74S
TETERBORO      CLOUDY    49  41  74 NE3       29.74S
CALDWELL       CLOUDY    49  30  48 E5        29.75S
SOMERVILLE     CLOUDY    50  44  80 VRB5      29.73R
ALLAIRE*       CLOUDY    47  45  93 NE9       29.73F
TOMS RIVER*    CLOUDY    46  43  87 NE8       29.73F

$$
PAZ043-044-047-054-055-060>062-066>071-050600-
EASTERN PENNSYLVANIA

CITY           SKY/WX    TMP DP  RH WIND       PRES   REMARKS
PHILADELPHIA   CLOUDY    51  46  83 E8        29.73S
NORTH PHILA    CLOUDY    50  48  93 NE7       29.74S FOG
BLUE BELL*     CLOUDY    46  46 100 NE5       29.72S
DOYLESTOWN     CLOUDY    46  45  96 VRB5      29.72S
QUAKERTOWN*    CLOUDY    48  46  93 E3        29.73F
PERKASIE*      CLOUDY    46  46 100 E7        29.74S
POTTSTOWN      CLOUDY    48  47  96 E3        29.74S
LANCASTER      CLOUDY    49  47  93 E5        29.73S
COATESVILLE    CLOUDY    48  48 100 CALM      29.73F FOG
READING        LGT RAIN  49  47  93 CALM      29.73R FOG
ALLENTOWN      CLOUDY    49  45  86 E7        29.74R
MOUNT POCONO   FOG       40  40 100 E6        29.72R VSB 1/4
HAZLETON       CLOUDY    45  43  93 CALM      29.74S
LEHIGHTON      CLOUDY    48  45  87 CALM      29.75R
WILKES BARRE   CLOUDY    48  44  86 E3        29.72F

$$
DEZALL-MDZ008-012-015-019-020-050600-
DELAWARE AND EASTERN MARYLAND

CITY           SKY/WX    TMP DP  RH WIND       PRES   REMARKS
WILMINGTON     CLOUDY    50  47  89 NE9       29.72F
DOVER          CLOUDY    48  48 100 NE10      29.70S
GEORGETOWN     CLOUDY    50  47  89 NE13      29.71R
EASTON         CLOUDY   N/A N/A N/A E5        29.74S
PATUXENT       CLOUDY    52  48  86 E9        29.69S
OCEAN CITY     CLOUDY    50  47  89 NE13G22   29.68F
WALLOPS ISLAND CLOUDY    52  48  86 NE13      29.68S
CAMBRIDGE      CLOUDY    50  46  87 NE8       29.70S
SALISBURY      CLOUDY    50  47  89 NE12      29.68F

$$
PAZ001-021-NYZ056-072-MDZ011-DCZ001-050600-
OTHER NEARBY LOCATIONS

CITY           SKY/WX    TMP DP  RH WIND       PRES   REMARKS
HARRISBURG     CLOUDY    50  46  86 E6        29.72S
STATE COLLEGE  CLOUDY    50  48  93 CALM      29.70S
WILLIAMSPORT   CLOUDY    52  47  83 E6        29.71S
BINGHAMTON     CLOUDY    45  45 100 SE6       29.72F FOG
NEW YORK CITY  CLOUDY    49  41  74 NE8       29.76S
BALTIMORE      CLOUDY    50  47  89 E12       29.70F
WASHINGTON DC  CLOUDY    53  49  86 E12       29.70F

$$




USA.gov is the U.S. government's official web portal to all federal, state and local government web resources and services.